Regional Weather Roundup
Issued by NWS Bismarck, ND

Home | Current Version | Previous Version | Text Only | Print | Product List | Glossary On
Versions: 1 2 3 4 5 6 7 8 9 10 11 12 13 14 15 16 17 18 19 20 21 22 23 24 25 26 27 28 29 30 31 32 33 34 35 36 37 38 39 40 41 42 43 44 45 46 47 48 49 50
000
ASUS43 KBIS 250110
RWRBIS

NWR BROADCAST TEXT
NATIONAL WEATHER SERVICE BISMARCK ND
700 PM CST FRI NOV 24 2017

NOTE: "FAIR" INDICATES FEW OR NO CLOUDS BELOW 12,000 FEET WITH NO
SIGNIFICANT WEATHER AND/OR OBSTRUCTIONS TO VISIBILITY.


CITY           SKY/WX    TMP DP  RH WIND       PRES   REMARKS
WILLISTON      CLEAR     41  32  70 W15       29.81R
MINOT          CLOUDY    42  31  64 W14       29.76R
MINOT AFB      MOCLDY    37  30  78 NW9       29.75R
BISMARCK       PTCLDY    44  32  62 W8        29.83R
DICKINSON      PTCLDY    39  29  67 W13       29.84R
GARRISON         N/A     39  31  72 W12       29.79R
HETTINGER ARPT PTCLDY    30  25  81 NW7       29.91R
JAMESTOWN      CLEAR     39  33  79 W13       29.74R
CARRINGTON     FAIR      37  32  81 W15       29.76R
HAZEN          FAIR      39  32  75 SW8       29.82S
LINTON           N/A     37  27  65 W3        29.85R
MANDAN         FAIR      43  30  61 W17       29.82R
OAKES            N/A     39  34  81 W12       29.76R
RUGBY          FAIR      36  32  87 NW14G20   29.73R
STANLEY        FAIR      36  34  93 W8        29.81R
TIOGA          FAIR      36  34  93 NW9       29.81R
WATFORD CITY   FAIR      41  32  70 W13       29.82R
$$

CITY           SKY/WX    TMP DP  RH WIND       PRES   REMARKS
GRAND FORKS    CLEAR     38  33  82 NW13G22   29.66R
GRAND FORKS AF CLEAR     38  33  79 NW12      29.67R
DEVILS LAKE    CLEAR     37  31  78 W17       29.71R
FARGO          CLEAR     38  34  85 W14       29.67R
CANDO          FAIR      36  36 100 W13       29.73R
CAVALIER       MOCLDY    34  30  86 N15G25    29.66R
GRAFTON        FAIR      37  32  81 W16       29.67R
GWINNER          N/A     43  36  75 W16       29.74R
LANGDON        FAIR      36  34  93 NW20      29.66R
ROLLA          FAIR      36  28  75 NW23G36   29.70R
WALHALLA       FAIR      32  32 100 N17       29.67R
$$

CITY           SKY/WX    TMP DP  RH WIND       PRES   REMARKS
ABERDEEN       CLOUDY    45  35  68 W15       29.80R
MOBRIDGE       CLEAR     36  29  75 NW7       29.83R
BUFFALO          N/A     36  29  75 W8        29.86R
RAPID CITY     CLOUDY    40  27  59 N14       29.92R
GLASGOW        CLEAR     39  27  62 W10       29.85R
SIDNEY         CLEAR     41  29  62 W10       29.86R
WOLF POINT     CLEAR     37  27  67 W9        29.86R
GLENDIVE       CLEAR     34  25  69 W6        29.89R
MILES CITY     PTCLDY    39  25  57 NW5       29.92R
BAKER          CLEAR     35  28  75 W12       29.91R
$$

CITY           SKY/WX    TMP DP  RH WIND       PRES   REMARKS
BILLINGS       PTCLDY    43  22  43 CALM      29.95R
GREAT FALLS    PTCLDY    39  21  48 SW15      29.93S
REGINA         PTCLDY    32  30  93 W9        29.78R
ESTEVAN        PTCLDY    30  28  93 W9        29.78R
$$





USA.gov is the U.S. government's official web portal to all federal, state and local government web resources and services.